Home   Weather   Mersin   Past weeks

Flag for Turkey Past Weather in Mersin, Turkey — Yesterday and Last 2 Weeks

Now
63 °F

Clear.


Feels Like: 63 °F
Forecast: 57 / 84 °F
Wind: 5 mph from Northeast

Location: Adana / Sakirpasa

Current Time: Sep 27, 2016 at 6:38:26 AM

Latest Report: Sep 27, 2016 at 5:50 AM


Visibility: 10 mi

Pressure: 29.92 "Hg

Humidity: 77%

Dew Point: 55 °F

Location of MersinLocation

Past Weather in Mersin — Graph

°F

Mersin Temperature Yesterday

Maximum temperature yesterday: 86 °F (at 1:50 PM)
Minimum temperature yesterday: 57 °F (at 6:20 AM)
Average temperature yesterday: 72 °F

High & Low Weather Summary for the Past Weeks

 TemperatureHumidityPressure
High95 °F (Sep 12, 2:20 PM)94% (Sep 12, 5:50 AM)30.04 "Hg (Sep 12, 5:50 AM)
Low57 °F (Sep 26, 6:20 AM)12% (Sep 25, 4:20 PM)29.74 "Hg (Sep 13, 2:50 PM)
Average77 °F61%29.84 "Hg
* Reported Sep 12 4:20 AM — Sep 27 4:50 AM, Mersin, Weather by CustomWeather, © 2016

Note: Actual official high and low records may vary slightly from our data, if they occured in-between our weather recording intervals... More about our weather records

Advertising

Mersin Weather History for the Previous 24 Hours

Scroll right to see more
 ConditionsComfort  
Time TempWeatherWind HumidityBarometerVisibility
4:50 AM
Tue, Sep 27
63 °FClear.5 mph77%29.92 "Hg10 mi
4:20 AM63 °FClear.6 mph83%29.89 "Hg10 mi
3:50 AM64 °FClear.6 mph78%29.89 "Hg10 mi
3:20 AM64 °FClear.7 mph78%29.89 "Hg10 mi
2:50 AM66 °FClear.5 mph73%29.89 "Hg10 mi
2:20 AM64 °FClear.6 mph83%29.92 "Hg10 mi
1:50 AM64 °FClear.7 mph78%29.92 "Hg10 mi
1:20 AM64 °FClear.2 mph78%29.92 "Hg10 mi
12:50 AM64 °FClear.2 mph78%29.92 "Hg10 mi
12:20 AM64 °FClear.No wind73%29.92 "Hg10 mi
11:50 PM
Mon, Sep 26
66 °FClear.1 mph73%29.92 "Hg10 mi
11:20 PM66 °FClear.1 mph73%29.92 "Hg10 mi
10:50 PM66 °FClear.2 mph73%29.92 "Hg10 mi
10:20 PM68 °FClear.No wind64%29.92 "Hg10 mi
9:50 PM68 °FClear.1 mph64%29.89 "Hg10 mi
9:20 PM70 °FClear.2 mph60%29.89 "Hg10 mi
8:50 PM70 °FClear.1 mph60%29.89 "Hg10 mi
8:20 PM72 °FClear.3 mph57%29.89 "Hg10 mi
7:50 PM72 °FClear.6 mph57%29.86 "Hg10 mi
7:20 PM73 °FClear.6 mph53%29.86 "Hg10 mi
6:50 PM73 °FClear.7 mph53%29.86 "Hg10 mi
6:20 PM77 °FSunny.8 mph47%29.86 "Hg10 mi
5:50 PM79 °FSunny.10 mph42%29.83 "Hg10 mi
5:20 PM81 °FSunny.10 mph39%29.83 "Hg10 mi
4:50 PM82 °FPassing clouds.10 mph37%29.83 "HgN/A
4:20 PM86 °FPassing clouds.6 mph24%29.83 "HgN/A
3:50 PM84 °FPassing clouds.6 mph27%29.83 "HgN/A
3:20 PM86 °FSunny.6 mph22%29.83 "Hg10 mi
2:50 PM84 °FSunny.7 mph23%29.83 "Hg10 mi
2:20 PM84 °FSunny.2 mph22%29.83 "Hg10 mi
1:50 PM86 °FSunny.2 mph20%29.86 "Hg10 mi
1:20 PM84 °FSunny.7 mph22%29.86 "Hg10 mi
12:50 PM84 °FSunny.3 mph22%29.86 "Hg10 mi
12:20 PM84 °FSunny.5 mph22%29.86 "Hg10 mi
11:50 AM82 °FSunny.5 mph20%29.86 "Hg10 mi
11:20 AM82 °FSunny.5 mph21%29.86 "Hg10 mi
10:50 AM81 °FPassing clouds.5 mph23%29.89 "HgN/A
10:20 AM79 °FPassing clouds.6 mph26%29.89 "HgN/A
9:50 AM77 °FSunny.6 mph30%29.89 "Hg10 mi
9:20 AM75 °FPassing clouds.5 mph34%29.89 "HgN/A
8:50 AM73 °FPassing clouds.6 mph38%29.89 "HgN/A
8:20 AM70 °FSunny.5 mph46%29.86 "Hg10 mi
7:50 AM66 °FSunny.5 mph64%29.86 "Hg10 mi
7:20 AM63 °FSunny.5 mph68%29.86 "Hg10 mi
6:50 AM59 °FSunny.3 mph68%29.86 "Hg10 mi
6:20 AM57 °FClear.2 mph72%29.86 "Hg10 mi
Weather by CustomWeather, © 2016

See weather overviewHow to use our weather pages